Year,Month,Day,Hour,Minute,Value (Times are PST for temperature in C)
2010,08,30,00,00,13.30
2010,08,30,00,01,13.30
2010,08,30,00,02,13.30
2010,08,30,00,03,13.30
2010,08,30,00,04,13.30
2010,08,30,00,05,13.30
2010,08,30,00,06,13.30
2010,08,30,00,07,13.30
2010,08,30,00,08,13.30
2010,08,30,00,09,13.30
2010,08,30,00,10,13.30
2010,08,30,00,11,13.30
2010,08,30,00,12,13.30
2010,08,30,00,13,13.30
2010,08,30,00,14,13.30
2010,08,30,00,15,13.30
2010,08,30,00,16,13.30
2010,08,30,00,17,13.30
2010,08,30,00,18,13.30
2010,08,30,00,19,13.30
2010,08,30,00,20,13.20
2010,08,30,00,21,13.20
2010,08,30,00,22,13.20
2010,08,30,00,23,13.20
2010,08,30,00,24,13.20
2010,08,30,00,25,13.10
2010,08,30,00,26,13.10
2010,08,30,00,27,13.10
2010,08,30,00,28,13.10
2010,08,30,00,29,13.10
2010,08,30,00,30,13.20
2010,08,30,00,31,13.20
2010,08,30,00,32,13.20
2010,08,30,00,33,13.20
2010,08,30,00,34,13.20
2010,08,30,00,35,13.20
2010,08,30,00,36,13.20
2010,08,30,00,37,13.20
2010,08,30,00,38,13.20
2010,08,30,00,39,13.20
2010,08,30,00,40,13.20
2010,08,30,00,41,13.20
2010,08,30,00,42,13.20
2010,08,30,00,43,13.20
2010,08,30,00,44,13.20
2010,08,30,00,45,13.20
2010,08,30,00,46,13.20
2010,08,30,00,47,13.20
2010,08,30,00,48,13.20
2010,08,30,00,49,13.30
2010,08,30,00,50,13.30
2010,08,30,00,51,13.30
2010,08,30,00,52,13.40
2010,08,30,00,53,13.40
2010,08,30,00,54,13.40
2010,08,30,00,55,13.40
2010,08,30,00,56,13.40
2010,08,30,00,57,13.40
2010,08,30,00,58,13.40
2010,08,30,00,59,13.40
2010,08,30,01,00,13.40
2010,08,30,01,01,13.40
2010,08,30,01,02,13.40
2010,08,30,01,03,13.40
2010,08,30,01,04,13.50
2010,08,30,01,05,13.50
2010,08,30,01,06,13.50
2010,08,30,01,07,13.50
2010,08,30,01,08,13.50
2010,08,30,01,09,13.50
2010,08,30,01,10,13.50
2010,08,30,01,11,13.50
2010,08,30,01,12,13.50
2010,08,30,01,13,13.50
2010,08,30,01,14,13.50
2010,08,30,01,15,13.50
2010,08,30,01,16,13.50
2010,08,30,01,17,13.50
2010,08,30,01,18,13.50
2010,08,30,01,19,13.50
2010,08,30,01,20,13.50
2010,08,30,01,21,13.40
2010,08,30,01,22,13.40
2010,08,30,01,23,13.40
2010,08,30,01,24,13.40
2010,08,30,01,25,13.30
2010,08,30,01,26,13.30
2010,08,30,01,27,13.20
2010,08,30,01,28,13.20
2010,08,30,01,29,13.20
2010,08,30,01,30,13.10
2010,08,30,01,31,13.10
2010,08,30,01,32,13.00
2010,08,30,01,33,13.00
2010,08,30,01,34,12.90
2010,08,30,01,35,12.80
2010,08,30,01,36,12.80
2010,08,30,01,37,12.70
2010,08,30,01,38,12.70
2010,08,30,01,39,12.60
2010,08,30,01,40,12.60
2010,08,30,01,41,12.50
2010,08,30,01,42,12.40
2010,08,30,01,43,12.40
2010,08,30,01,44,12.30
2010,08,30,01,45,12.30
2010,08,30,01,46,12.20
2010,08,30,01,47,12.20
2010,08,30,01,48,12.10
2010,08,30,01,49,12.10
2010,08,30,01,50,12.10
2010,08,30,01,51,12.00
2010,08,30,01,52,12.00
2010,08,30,01,53,11.90
2010,08,30,01,54,11.90
2010,08,30,01,55,11.90
2010,08,30,01,56,11.90
2010,08,30,01,57,12.00
2010,08,30,01,58,12.10
2010,08,30,01,59,12.10
2010,08,30,02,00,12.00
2010,08,30,02,01,12.00
2010,08,30,02,02,11.90
2010,08,30,02,03,11.90
2010,08,30,02,04,11.90
2010,08,30,02,05,11.80
2010,08,30,02,06,11.80
2010,08,30,02,07,11.80
2010,08,30,02,08,11.70
2010,08,30,02,09,11.70
2010,08,30,02,10,11.70
2010,08,30,02,11,11.70
2010,08,30,02,12,11.70
2010,08,30,02,13,11.70
2010,08,30,02,14,11.70
2010,08,30,02,15,11.70
2010,08,30,02,16,11.80
2010,08,30,02,17,11.80
2010,08,30,02,18,11.80
2010,08,30,02,19,11.80
2010,08,30,02,20,11.80
2010,08,30,02,21,11.80
2010,08,30,02,22,11.80
2010,08,30,02,23,11.90
2010,08,30,02,24,11.90
2010,08,30,02,25,11.90
2010,08,30,02,26,11.90
2010,08,30,02,27,11.90
2010,08,30,02,28,12.00
2010,08,30,02,29,12.00
2010,08,30,02,30,12.00
2010,08,30,02,31,12.10
2010,08,30,02,32,12.10
2010,08,30,02,33,12.10
2010,08,30,02,34,12.20
2010,08,30,02,35,12.20
2010,08,30,02,36,12.20
2010,08,30,02,37,12.20
2010,08,30,02,38,12.20
2010,08,30,02,39,12.20
2010,08,30,02,40,12.20
2010,08,30,02,41,12.20
2010,08,30,02,42,12.10
2010,08,30,02,43,12.10
2010,08,30,02,44,12.20
2010,08,30,02,45,12.10
2010,08,30,02,46,12.10
2010,08,30,02,47,12.10
2010,08,30,02,48,12.10
2010,08,30,02,49,12.10
2010,08,30,02,50,12.10
2010,08,30,02,51,12.10
2010,08,30,02,52,12.10
2010,08,30,02,53,12.10
2010,08,30,02,54,12.10
2010,08,30,02,55,12.10
2010,08,30,02,56,12.10
2010,08,30,02,57,12.10
2010,08,30,02,58,12.10
2010,08,30,02,59,12.10
2010,08,30,03,00,12.10
2010,08,30,03,01,12.10
2010,08,30,03,02,12.10
2010,08,30,03,03,12.00
2010,08,30,03,04,12.00
2010,08,30,03,05,12.00
2010,08,30,03,06,12.00
2010,08,30,03,07,12.00
2010,08,30,03,08,11.90
2010,08,30,03,09,11.90
2010,08,30,03,10,11.90
2010,08,30,03,11,11.90
2010,08,30,03,12,11.90
2010,08,30,03,13,11.90
2010,08,30,03,14,11.90
2010,08,30,03,15,11.90
2010,08,30,03,16,11.90
2010,08,30,03,17,11.90
2010,08,30,03,18,11.90
2010,08,30,03,19,11.90
2010,08,30,03,20,11.90
2010,08,30,03,21,11.90
2010,08,30,03,22,11.90
2010,08,30,03,23,11.90
2010,08,30,03,24,11.90
2010,08,30,03,25,11.90
2010,08,30,03,26,11.90
2010,08,30,03,27,11.90
2010,08,30,03,28,11.80
2010,08,30,03,29,11.80
2010,08,30,03,30,11.80
2010,08,30,03,31,11.80
2010,08,30,03,32,11.80
2010,08,30,03,33,11.80
2010,08,30,03,34,11.80
2010,08,30,03,35,11.70
2010,08,30,03,36,11.70
2010,08,30,03,37,11.70
2010,08,30,03,38,11.70
2010,08,30,03,39,11.70
2010,08,30,03,40,11.70
2010,08,30,03,41,11.80
2010,08,30,03,42,11.80
2010,08,30,03,43,11.80
2010,08,30,03,44,11.80
2010,08,30,03,45,11.70
2010,08,30,03,46,11.70
2010,08,30,03,47,11.70
2010,08,30,03,48,11.70
2010,08,30,03,49,11.70
2010,08,30,03,50,11.70
2010,08,30,03,51,11.70
2010,08,30,03,52,11.70
2010,08,30,03,53,11.60
2010,08,30,03,54,11.60
2010,08,30,03,55,11.60
2010,08,30,03,56,11.60
2010,08,30,03,57,11.50
2010,08,30,03,58,11.50
2010,08,30,03,59,11.40
2010,08,30,04,00,11.40
2010,08,30,04,01,11.40
2010,08,30,04,02,11.30
2010,08,30,04,03,11.30
2010,08,30,04,04,11.30
2010,08,30,04,05,11.20
2010,08,30,04,06,11.20
2010,08,30,04,07,11.20
2010,08,30,04,08,11.20
2010,08,30,04,09,11.10
2010,08,30,04,10,11.10
2010,08,30,04,11,11.00
2010,08,30,04,12,11.00
2010,08,30,04,13,10.90
2010,08,30,04,14,10.90
2010,08,30,04,15,10.90
2010,08,30,04,16,10.80
2010,08,30,04,17,10.80
2010,08,30,04,18,10.80
2010,08,30,04,19,10.70
2010,08,30,04,20,10.70
2010,08,30,04,21,10.70
2010,08,30,04,22,10.70
2010,08,30,04,23,10.60
2010,08,30,04,24,10.60
2010,08,30,04,25,10.60
2010,08,30,04,26,10.50
2010,08,30,04,27,10.50
2010,08,30,04,28,10.50
2010,08,30,04,29,10.40
2010,08,30,04,30,10.40
2010,08,30,04,31,10.40
2010,08,30,04,32,10.40
2010,08,30,04,33,10.30
2010,08,30,04,34,10.30
2010,08,30,04,35,10.30
2010,08,30,04,36,10.30
2010,08,30,04,37,10.30
2010,08,30,04,38,10.20
2010,08,30,04,39,10.20
2010,08,30,04,40,10.20
2010,08,30,04,41,10.20
2010,08,30,04,42,10.10
2010,08,30,04,43,10.10
2010,08,30,04,44,10.10
2010,08,30,04,45,10.10
2010,08,30,04,46,10.10
2010,08,30,04,47,10.10
2010,08,30,04,48,10.00
2010,08,30,04,49,10.00
2010,08,30,04,50,10.00
2010,08,30,04,51,10.00
2010,08,30,04,52,9.90
2010,08,30,04,53,9.90
2010,08,30,04,54,9.90
2010,08,30,04,55,9.90
2010,08,30,04,56,9.80
2010,08,30,04,57,9.80
2010,08,30,04,58,9.80
2010,08,30,04,59,9.80
2010,08,30,05,00,9.80
2010,08,30,05,01,9.70
2010,08,30,05,02,9.70
2010,08,30,05,03,9.70
2010,08,30,05,04,9.70
2010,08,30,05,05,9.60
2010,08,30,05,06,9.60
2010,08,30,05,07,9.60
2010,08,30,05,08,9.60
2010,08,30,05,09,9.50
2010,08,30,05,10,9.50
2010,08,30,05,11,9.50
2010,08,30,05,12,9.40
2010,08,30,05,13,9.40
2010,08,30,05,14,9.40
2010,08,30,05,15,9.40
2010,08,30,05,16,9.30
2010,08,30,05,17,9.30
2010,08,30,05,18,9.30
2010,08,30,05,19,9.30
2010,08,30,05,20,9.20
2010,08,30,05,21,9.20
2010,08,30,05,22,9.20
2010,08,30,05,23,9.10
2010,08,30,05,24,9.10
2010,08,30,05,25,9.10
2010,08,30,05,26,9.10
2010,08,30,05,27,9.00
2010,08,30,05,28,9.00
2010,08,30,05,29,9.00
2010,08,30,05,30,9.00
2010,08,30,05,31,8.90
2010,08,30,05,32,8.90
2010,08,30,05,33,8.90
2010,08,30,05,34,8.90
2010,08,30,05,35,8.90
2010,08,30,05,36,8.90
2010,08,30,05,37,8.90
2010,08,30,05,38,8.90
2010,08,30,05,39,8.90
2010,08,30,05,40,8.90
2010,08,30,05,41,8.90
2010,08,30,05,42,8.90
2010,08,30,05,43,8.90
2010,08,30,05,44,8.90
2010,08,30,05,45,8.80
2010,08,30,05,46,8.80
2010,08,30,05,47,8.80
2010,08,30,05,48,8.80
2010,08,30,05,49,8.80
2010,08,30,05,50,8.80
2010,08,30,05,51,8.70
2010,08,30,05,52,8.70
2010,08,30,05,53,8.70
2010,08,30,05,54,8.70
2010,08,30,05,55,8.70
2010,08,30,05,56,8.60
2010,08,30,05,57,8.60
2010,08,30,05,58,8.60
2010,08,30,05,59,8.60
2010,08,30,06,00,8.60
2010,08,30,06,01,8.60
2010,08,30,06,02,8.60
2010,08,30,06,03,8.60
2010,08,30,06,04,8.60
2010,08,30,06,05,8.50
2010,08,30,06,06,8.50
2010,08,30,06,07,8.50
2010,08,30,06,08,8.50
2010,08,30,06,09,8.40
2010,08,30,06,10,8.40
2010,08,30,06,11,8.40
2010,08,30,06,12,8.40
2010,08,30,06,13,8.40
2010,08,30,06,14,8.40
2010,08,30,06,15,8.30
2010,08,30,06,16,8.30
2010,08,30,06,17,8.30
2010,08,30,06,18,8.30
2010,08,30,06,19,8.30
2010,08,30,06,20,8.30
2010,08,30,06,21,8.30
2010,08,30,06,22,8.30
2010,08,30,06,23,8.30
2010,08,30,06,24,8.30
2010,08,30,06,25,8.20
2010,08,30,06,26,8.20
2010,08,30,06,27,8.20
2010,08,30,06,28,8.20
2010,08,30,06,29,8.20
2010,08,30,06,30,8.20
2010,08,30,06,31,8.20
2010,08,30,06,32,8.20
2010,08,30,06,33,8.20
2010,08,30,06,34,8.20
2010,08,30,06,35,8.10
2010,08,30,06,36,8.10
2010,08,30,06,37,8.10
2010,08,30,06,38,8.10
2010,08,30,06,39,8.10
2010,08,30,06,40,8.10
2010,08,30,06,41,8.10
2010,08,30,06,42,8.10
2010,08,30,06,43,8.00
2010,08,30,06,44,8.00
2010,08,30,06,45,8.00
2010,08,30,06,46,8.00
2010,08,30,06,47,8.00
2010,08,30,06,48,8.00
2010,08,30,06,49,8.00
2010,08,30,06,50,8.00
2010,08,30,06,51,8.00
2010,08,30,06,52,8.00
2010,08,30,06,53,8.00
2010,08,30,06,54,8.00
2010,08,30,06,55,8.00
2010,08,30,06,56,8.00
2010,08,30,06,57,8.00
2010,08,30,06,58,8.00
2010,08,30,06,59,7.90
2010,08,30,07,00,7.90
2010,08,30,07,01,7.90
2010,08,30,07,02,7.90
2010,08,30,07,03,7.90
2010,08,30,07,04,7.90
2010,08,30,07,05,7.90
2010,08,30,07,06,7.90
2010,08,30,07,07,7.90
2010,08,30,07,08,7.90
2010,08,30,07,09,7.90
2010,08,30,07,10,7.90
2010,08,30,07,11,7.90
2010,08,30,07,12,7.90
2010,08,30,07,13,7.90
2010,08,30,07,14,8.00
2010,08,30,07,15,8.00
2010,08,30,07,16,8.00
2010,08,30,07,17,8.00
2010,08,30,07,18,8.10
2010,08,30,07,19,8.10
2010,08,30,07,20,8.10
2010,08,30,07,21,8.10
2010,08,30,07,22,8.10
2010,08,30,07,23,8.10
2010,08,30,07,24,8.10
2010,08,30,07,25,8.10
2010,08,30,07,26,8.10
2010,08,30,07,27,8.20
2010,08,30,07,28,8.20
2010,08,30,07,29,8.20
2010,08,30,07,30,8.20
2010,08,30,07,31,8.30
2010,08,30,07,32,8.30
2010,08,30,07,33,8.40
2010,08,30,07,34,8.40
2010,08,30,07,35,8.50
2010,08,30,07,36,8.50
2010,08,30,07,37,8.60
2010,08,30,07,38,8.70
2010,08,30,07,39,8.70
2010,08,30,07,40,8.80
2010,08,30,07,41,8.80
2010,08,30,07,42,8.90
2010,08,30,07,43,9.00
2010,08,30,07,44,9.10
2010,08,30,07,45,9.10
2010,08,30,07,46,9.20
2010,08,30,07,47,9.30
2010,08,30,07,48,9.30
2010,08,30,07,49,9.40
2010,08,30,07,50,9.50
2010,08,30,07,51,9.60
2010,08,30,07,52,9.60
2010,08,30,07,53,9.70
2010,08,30,07,54,9.80
2010,08,30,07,55,9.90
2010,08,30,07,56,10.00
2010,08,30,07,57,10.10
2010,08,30,07,58,10.20
2010,08,30,07,59,10.30
2010,08,30,08,00,10.40
2010,08,30,08,01,10.50
2010,08,30,08,02,10.70
2010,08,30,08,03,10.80
2010,08,30,08,04,10.90
2010,08,30,08,05,11.00
2010,08,30,08,06,11.10
2010,08,30,08,07,11.20
2010,08,30,08,08,11.30
2010,08,30,08,09,11.40
2010,08,30,08,10,11.50
2010,08,30,08,11,11.50
2010,08,30,08,12,11.60
2010,08,30,08,13,11.60
2010,08,30,08,14,11.70
2010,08,30,08,15,11.70
2010,08,30,08,16,11.80
2010,08,30,08,17,11.90
2010,08,30,08,18,12.00
2010,08,30,08,19,12.10
2010,08,30,08,20,12.30
2010,08,30,08,21,12.40
2010,08,30,08,22,12.50
2010,08,30,08,23,12.70
2010,08,30,08,24,12.80
2010,08,30,08,25,12.90
2010,08,30,08,26,13.00
2010,08,30,08,27,13.10
2010,08,30,08,28,13.20
2010,08,30,08,29,13.30
2010,08,30,08,30,13.30
2010,08,30,08,31,13.40
2010,08,30,08,32,13.60
2010,08,30,08,33,13.80
2010,08,30,08,34,14.00
2010,08,30,08,35,14.10
2010,08,30,08,36,14.10
2010,08,30,08,37,14.30
2010,08,30,08,38,14.50
2010,08,30,08,39,14.50
2010,08,30,08,40,14.60
2010,08,30,08,41,14.70
2010,08,30,08,42,14.80
2010,08,30,08,43,15.00
2010,08,30,08,44,15.00
2010,08,30,08,45,15.00
2010,08,30,08,46,14.90
2010,08,30,08,47,15.00
2010,08,30,08,48,15.00
2010,08,30,08,49,15.00
2010,08,30,08,50,15.10
2010,08,30,08,51,15.10
2010,08,30,08,52,15.10
2010,08,30,08,53,15.20
2010,08,30,08,54,15.20
2010,08,30,08,55,15.30
2010,08,30,08,56,15.30
2010,08,30,08,57,15.30
2010,08,30,08,58,15.50
2010,08,30,08,59,15.60
2010,08,30,09,00,15.60
2010,08,30,09,01,15.60
2010,08,30,09,02,15.70
2010,08,30,09,03,15.70
2010,08,30,09,04,15.70
2010,08,30,09,05,15.70
2010,08,30,09,06,15.70
2010,08,30,09,07,15.60
2010,08,30,09,08,15.60
2010,08,30,09,09,15.60
2010,08,30,09,10,15.70
2010,08,30,09,11,15.70
2010,08,30,09,12,15.70
2010,08,30,09,13,15.60
2010,08,30,09,14,15.60
2010,08,30,09,15,15.50
2010,08,30,09,16,15.50
2010,08,30,09,17,15.50
2010,08,30,09,18,15.50
2010,08,30,09,19,15.40
2010,08,30,09,20,15.50
2010,08,30,09,21,15.60
2010,08,30,09,22,15.80
2010,08,30,09,23,16.00
2010,08,30,09,24,16.00
2010,08,30,09,25,16.10
2010,08,30,09,26,16.10
2010,08,30,09,27,16.20
2010,08,30,09,28,16.30
2010,08,30,09,29,16.40
2010,08,30,09,30,16.50
2010,08,30,09,31,16.60
2010,08,30,09,32,16.60
2010,08,30,09,33,16.60
2010,08,30,09,34,16.60
2010,08,30,09,35,16.50
2010,08,30,09,36,16.30
2010,08,30,09,37,16.30
2010,08,30,09,38,16.20
2010,08,30,09,39,16.00
2010,08,30,09,40,15.90
2010,08,30,09,41,15.90
2010,08,30,09,42,15.90
2010,08,30,09,43,15.90
2010,08,30,09,44,15.90
2010,08,30,09,45,15.90
2010,08,30,09,46,16.00
2010,08,30,09,47,16.10
2010,08,30,09,48,16.20
2010,08,30,09,49,16.30
2010,08,30,09,50,16.30
2010,08,30,09,51,16.40
2010,08,30,09,52,16.40
2010,08,30,09,53,16.30
2010,08,30,09,54,16.30
2010,08,30,09,55,16.40
2010,08,30,09,56,16.40
2010,08,30,09,57,16.50
2010,08,30,09,58,16.50
2010,08,30,09,59,16.60
2010,08,30,10,00,16.70
2010,08,30,10,01,16.70
2010,08,30,10,02,16.80
2010,08,30,10,03,16.70
2010,08,30,10,04,16.70
2010,08,30,10,05,16.70
2010,08,30,10,06,16.70
2010,08,30,10,07,16.70
2010,08,30,10,08,16.70
2010,08,30,10,09,16.70
2010,08,30,10,10,16.70
2010,08,30,10,11,16.80
2010,08,30,10,12,16.90
2010,08,30,10,13,17.00
2010,08,30,10,14,17.20
2010,08,30,10,15,17.30
2010,08,30,10,16,17.30
2010,08,30,10,17,17.30
2010,08,30,10,18,17.40
2010,08,30,10,19,17.50
2010,08,30,10,20,17.60
2010,08,30,10,21,17.60
2010,08,30,10,22,17.60
2010,08,30,10,23,17.60
2010,08,30,10,24,17.70
2010,08,30,10,25,17.80
2010,08,30,10,26,17.80
2010,08,30,10,27,17.80
2010,08,30,10,28,17.80
2010,08,30,10,29,17.90
2010,08,30,10,30,17.90
2010,08,30,10,31,17.90
2010,08,30,10,32,17.90
2010,08,30,10,33,17.90
2010,08,30,10,34,17.80
2010,08,30,10,35,17.70
2010,08,30,10,36,17.70
2010,08,30,10,37,17.70
2010,08,30,10,38,17.70
2010,08,30,10,39,17.70
2010,08,30,10,40,17.70
2010,08,30,10,41,17.60
2010,08,30,10,42,17.50
2010,08,30,10,43,17.50
2010,08,30,10,44,17.50
2010,08,30,10,45,17.60
2010,08,30,10,46,17.60
2010,08,30,10,47,17.60
2010,08,30,10,48,17.60
2010,08,30,10,49,17.50
2010,08,30,10,50,17.40
2010,08,30,10,51,17.30
2010,08,30,10,52,17.40
2010,08,30,10,53,17.50
2010,08,30,10,54,17.50
2010,08,30,10,55,17.60
2010,08,30,10,56,17.70
2010,08,30,10,57,17.80
2010,08,30,10,58,17.80
2010,08,30,10,59,17.80
2010,08,30,11,00,17.80
2010,08,30,11,01,17.80
2010,08,30,11,02,17.90
2010,08,30,11,03,17.90
2010,08,30,11,04,17.90
2010,08,30,11,05,17.90
2010,08,30,11,06,17.90
2010,08,30,11,07,17.90
2010,08,30,11,08,17.80
2010,08,30,11,09,17.90
2010,08,30,11,10,17.90
2010,08,30,11,11,17.90
2010,08,30,11,12,17.80
2010,08,30,11,13,17.80
2010,08,30,11,14,17.80
2010,08,30,11,15,17.80
2010,08,30,11,16,17.80
2010,08,30,11,17,17.80
2010,08,30,11,18,17.80
2010,08,30,11,19,17.80
2010,08,30,11,20,17.80
2010,08,30,11,21,17.80
2010,08,30,11,22,17.80
2010,08,30,11,23,17.90
2010,08,30,11,24,17.90
2010,08,30,11,25,17.80
2010,08,30,11,26,17.80
2010,08,30,11,27,17.80
2010,08,30,11,28,17.80
2010,08,30,11,29,17.70
2010,08,30,11,30,17.70
2010,08,30,11,31,17.70
2010,08,30,11,32,17.60
2010,08,30,11,33,17.60
2010,08,30,11,34,17.60
2010,08,30,11,35,17.70
2010,08,30,11,36,17.60
2010,08,30,11,37,17.60
2010,08,30,11,38,17.60
2010,08,30,11,39,17.60
2010,08,30,11,40,17.60
2010,08,30,11,41,17.60
2010,08,30,11,42,17.60
2010,08,30,11,43,17.70
2010,08,30,11,44,17.90
2010,08,30,11,45,18.00
2010,08,30,11,46,18.10
2010,08,30,11,47,18.10
2010,08,30,11,48,18.20
2010,08,30,11,49,18.20
2010,08,30,11,50,18.30
2010,08,30,11,51,18.30
2010,08,30,11,52,18.30
2010,08,30,11,53,18.10
2010,08,30,11,54,18.10
2010,08,30,11,55,18.20
2010,08,30,11,56,18.30
2010,08,30,11,57,18.30
2010,08,30,11,58,18.20
2010,08,30,11,59,18.10
2010,08,30,12,00,18.00
2010,08,30,12,01,17.90
2010,08,30,12,02,17.90
2010,08,30,12,03,18.00
2010,08,30,12,04,18.10
2010,08,30,12,05,18.20
2010,08,30,12,06,18.20
2010,08,30,12,07,18.20
2010,08,30,12,08,18.20
2010,08,30,12,09,18.30
2010,08,30,12,10,18.30
2010,08,30,12,11,18.30
2010,08,30,12,12,18.30
2010,08,30,12,13,18.30
2010,08,30,12,14,18.50
2010,08,30,12,15,18.60
2010,08,30,12,16,18.70
2010,08,30,12,17,18.80
2010,08,30,12,18,18.80
2010,08,30,12,19,18.90
2010,08,30,12,20,18.80
2010,08,30,12,21,18.70
2010,08,30,12,22,18.70
2010,08,30,12,23,18.60
2010,08,30,12,24,18.60
2010,08,30,12,25,18.60
2010,08,30,12,26,18.70
2010,08,30,12,27,18.80
2010,08,30,12,28,18.80
2010,08,30,12,29,18.80
2010,08,30,12,30,18.70
2010,08,30,12,31,18.70
2010,08,30,12,32,18.70
2010,08,30,12,33,18.70
2010,08,30,12,34,18.60
2010,08,30,12,35,18.60
2010,08,30,12,36,18.60
2010,08,30,12,37,18.70
2010,08,30,12,38,18.80
2010,08,30,12,39,18.90
2010,08,30,12,40,19.00
2010,08,30,12,41,19.00
2010,08,30,12,42,19.00
2010,08,30,12,43,19.00
2010,08,30,12,44,19.00
2010,08,30,12,45,18.90
2010,08,30,12,46,18.90
2010,08,30,12,47,18.80
2010,08,30,12,48,18.70
2010,08,30,12,49,18.60
2010,08,30,12,50,18.50
2010,08,30,12,51,18.40
2010,08,30,12,52,18.30
2010,08,30,12,53,18.30
2010,08,30,12,54,18.30
2010,08,30,12,55,18.30
2010,08,30,12,56,18.40
2010,08,30,12,57,18.50
2010,08,30,12,58,18.60
2010,08,30,12,59,18.60
2010,08,30,13,00,18.70
2010,08,30,13,01,18.80
2010,08,30,13,02,18.80
2010,08,30,13,03,18.80
2010,08,30,13,04,18.80
2010,08,30,13,05,18.90
2010,08,30,13,06,19.00
2010,08,30,13,07,19.00
2010,08,30,13,08,19.00
2010,08,30,13,09,19.00
2010,08,30,13,10,19.00
2010,08,30,13,11,19.10
2010,08,30,13,12,19.00
2010,08,30,13,13,19.00
2010,08,30,13,14,19.00
2010,08,30,13,15,18.90
2010,08,30,13,16,18.90
2010,08,30,13,17,18.90
2010,08,30,13,18,18.90
2010,08,30,13,19,18.90
2010,08,30,13,20,18.90
2010,08,30,13,21,19.00
2010,08,30,13,22,19.00
2010,08,30,13,23,19.00
2010,08,30,13,24,19.00
2010,08,30,13,25,19.00
2010,08,30,13,26,19.00
2010,08,30,13,27,19.00
2010,08,30,13,28,19.10
2010,08,30,13,29,19.20
2010,08,30,13,30,19.30
2010,08,30,13,31,19.30
2010,08,30,13,32,19.40
2010,08,30,13,33,19.40
2010,08,30,13,34,19.50
2010,08,30,13,35,19.40
2010,08,30,13,36,19.30
2010,08,30,13,37,19.40
2010,08,30,13,38,19.50
2010,08,30,13,39,19.40
2010,08,30,13,40,19.40
2010,08,30,13,41,19.20
2010,08,30,13,42,19.00
2010,08,30,13,43,18.90
2010,08,30,13,44,18.80
2010,08,30,13,45,18.70
2010,08,30,13,46,18.70
2010,08,30,13,47,18.70
2010,08,30,13,48,18.80
2010,08,30,13,49,18.90
2010,08,30,13,50,19.00
2010,08,30,13,51,19.10
2010,08,30,13,52,19.10
2010,08,30,13,53,19.10
2010,08,30,13,54,19.00
2010,08,30,13,55,19.00
2010,08,30,13,56,19.00
2010,08,30,13,57,19.10
2010,08,30,13,58,19.20
2010,08,30,13,59,19.20
2010,08,30,14,00,19.30
2010,08,30,14,01,19.30
2010,08,30,14,02,19.40
2010,08,30,14,03,19.40
2010,08,30,14,04,19.50
2010,08,30,14,05,19.60
2010,08,30,14,06,19.60
2010,08,30,14,07,19.60
2010,08,30,14,08,19.50
2010,08,30,14,09,19.40
2010,08,30,14,10,19.30
2010,08,30,14,11,19.20
2010,08,30,14,12,19.20
2010,08,30,14,13,19.40
2010,08,30,14,14,19.50
2010,08,30,14,15,19.60
2010,08,30,14,16,19.50
2010,08,30,14,17,19.50
2010,08,30,14,18,19.60
2010,08,30,14,19,19.60
2010,08,30,14,20,19.60
2010,08,30,14,21,19.50
2010,08,30,14,22,19.60
2010,08,30,14,23,19.50
2010,08,30,14,24,19.60
2010,08,30,14,25,19.60
2010,08,30,14,26,19.70
2010,08,30,14,27,19.80
2010,08,30,14,28,19.80
2010,08,30,14,29,19.80
2010,08,30,14,30,19.70
2010,08,30,14,31,19.60
2010,08,30,14,32,19.50
2010,08,30,14,33,19.50
2010,08,30,14,34,19.50
2010,08,30,14,35,19.60
2010,08,30,14,36,19.50
2010,08,30,14,37,19.40
2010,08,30,14,38,19.40
2010,08,30,14,39,19.40
2010,08,30,14,40,19.30
2010,08,30,14,41,19.30
2010,08,30,14,42,19.30
2010,08,30,14,43,19.40
2010,08,30,14,44,19.60
2010,08,30,14,45,19.70
2010,08,30,14,46,19.70
2010,08,30,14,47,19.60
2010,08,30,14,48,19.50
2010,08,30,14,49,19.50
2010,08,30,14,50,19.50
2010,08,30,14,51,19.50
2010,08,30,14,52,19.50
2010,08,30,14,53,19.50
2010,08,30,14,54,19.40
2010,08,30,14,55,19.40
2010,08,30,14,56,19.40
2010,08,30,14,57,19.40
2010,08,30,14,58,19.40
2010,08,30,14,59,19.30
2010,08,30,15,00,19.20
2010,08,30,15,01,19.30
2010,08,30,15,02,19.30
2010,08,30,15,03,19.30
2010,08,30,15,04,19.40
2010,08,30,15,05,19.40
2010,08,30,15,06,19.40
2010,08,30,15,07,19.40
2010,08,30,15,08,19.40
2010,08,30,15,09,19.30
2010,08,30,15,10,19.30
2010,08,30,15,11,19.30
2010,08,30,15,12,19.40
2010,08,30,15,13,19.40
2010,08,30,15,14,19.40
2010,08,30,15,15,19.40
2010,08,30,15,16,19.40
2010,08,30,15,17,19.40
2010,08,30,15,18,19.50
2010,08,30,15,19,19.50
2010,08,30,15,20,19.60
2010,08,30,15,21,19.60
2010,08,30,15,22,19.70
2010,08,30,15,23,19.70
2010,08,30,15,24,19.80
2010,08,30,15,25,19.70
2010,08,30,15,26,19.80
2010,08,30,15,27,19.80
2010,08,30,15,28,19.80
2010,08,30,15,29,19.60
2010,08,30,15,30,19.60
2010,08,30,15,31,19.50
2010,08,30,15,32,19.40
2010,08,30,15,33,19.30
2010,08,30,15,34,19.30
2010,08,30,15,35,19.30
2010,08,30,15,36,19.20
2010,08,30,15,37,19.10
2010,08,30,15,38,19.00
2010,08,30,15,39,18.90
2010,08,30,15,40,18.90
2010,08,30,15,41,18.90
2010,08,30,15,42,18.90
2010,08,30,15,43,19.00
2010,08,30,15,44,19.10
2010,08,30,15,45,19.10
2010,08,30,15,46,19.20
2010,08,30,15,47,19.20
2010,08,30,15,48,19.30
2010,08,30,15,49,19.30
2010,08,30,15,50,19.30
2010,08,30,15,51,19.30
2010,08,30,15,52,19.30
2010,08,30,15,53,19.30
2010,08,30,15,54,19.30
2010,08,30,15,55,19.30
2010,08,30,15,56,19.30
2010,08,30,15,57,19.30
2010,08,30,15,58,19.30
2010,08,30,15,59,19.30
2010,08,30,16,00,19.30
2010,08,30,16,01,19.40
2010,08,30,16,02,19.50
2010,08,30,16,03,19.60
2010,08,30,16,04,19.60
2010,08,30,16,05,19.60
2010,08,30,16,06,19.60
2010,08,30,16,07,19.70
2010,08,30,16,08,19.70
2010,08,30,16,09,19.70
2010,08,30,16,10,19.70
2010,08,30,16,11,19.70
2010,08,30,16,12,19.70
2010,08,30,16,13,19.70
2010,08,30,16,14,19.80
2010,08,30,16,15,19.80
2010,08,30,16,16,19.80
2010,08,30,16,17,19.80
2010,08,30,16,18,19.80
2010,08,30,16,19,19.80
2010,08,30,16,20,19.80
2010,08,30,16,21,19.80
2010,08,30,16,22,19.70
2010,08,30,16,23,19.70
2010,08,30,16,24,19.70
2010,08,30,16,25,19.70
2010,08,30,16,26,19.60
2010,08,30,16,27,19.70
2010,08,30,16,28,19.60
2010,08,30,16,29,19.60
2010,08,30,16,30,19.60
2010,08,30,16,31,19.60
2010,08,30,16,32,19.60
2010,08,30,16,33,19.60
2010,08,30,16,34,19.70
2010,08,30,16,35,19.70
2010,08,30,16,36,19.70
2010,08,30,16,37,19.70
2010,08,30,16,38,19.70
2010,08,30,16,39,19.70
2010,08,30,16,40,19.60
2010,08,30,16,41,19.50
2010,08,30,16,42,19.50
2010,08,30,16,43,19.40
2010,08,30,16,44,19.40
2010,08,30,16,45,19.40
2010,08,30,16,46,19.30
2010,08,30,16,47,19.30
2010,08,30,16,48,19.30
2010,08,30,16,49,19.30
2010,08,30,16,50,19.30
2010,08,30,16,51,19.30
2010,08,30,16,52,19.40
2010,08,30,16,53,19.40
2010,08,30,16,54,19.50
2010,08,30,16,55,19.50
2010,08,30,16,56,19.50
2010,08,30,16,57,19.50
2010,08,30,16,58,19.50
2010,08,30,16,59,19.50
2010,08,30,17,00,19.60
2010,08,30,17,01,19.60
2010,08,30,17,02,19.60
2010,08,30,17,03,19.60
2010,08,30,17,04,19.50
2010,08,30,17,05,19.60
2010,08,30,17,06,19.50
2010,08,30,17,07,19.40
2010,08,30,17,08,19.30
2010,08,30,17,09,19.30
2010,08,30,17,10,19.40
2010,08,30,17,11,19.40
2010,08,30,17,12,19.30
2010,08,30,17,13,19.30
2010,08,30,17,14,19.20
2010,08,30,17,15,19.10
2010,08,30,17,16,19.00
2010,08,30,17,17,19.00
2010,08,30,17,18,18.90
2010,08,30,17,19,18.90
2010,08,30,17,20,18.90
2010,08,30,17,21,18.90
2010,08,30,17,22,18.90
2010,08,30,17,23,18.80
2010,08,30,17,24,18.80
2010,08,30,17,25,18.70
2010,08,30,17,26,18.60
2010,08,30,17,27,18.60